Location: Bishausen
(51.6334°N, 9.9631°E)
Time: 15:59:44
(UTC+00:00)

Cosmos 1455 - Pass Details

Date: 23 May 2024
Orbit: 445 x 459 km, 82.5° (Epoch: 23 June)

Event Time Altitude Azimuth Distance (km) Brightness Sun altitude
Rises 02:00:27 0° 332° (NNW) 2,461 6.0 -9.4°
Maximum altitude 02:05:01 13° 275° (W) 1,425 4.1 -8.9°
Drops below altitude 10° 02:06:35 10° 248° (WSW) 1,581 4.1 -8.8°
Enters shadow 02:06:42 10° 246° (WSW) 1,604 4.1 -8.7°
